Location: Losili
(4.4086°N, 32.7049°E)
Time: 23:16:38
(UTC+00:00)

CZ-2C R/B - Pass Details

Date: 18 September 2019
Orbit: 639 x 705 km, 98.4° (Epoch: 14 October)

Event Time Altitude Azimuth Distance (km) Brightness Sun altitude
Rises 16:54:31 0° 10° (N) 2,928 7.0 -17.6°
Reaches altitude 10° 16:56:42 10° 9° (N) 2,021 6.1 -18.1°
Maximum altitude 17:01:05 80° 283° (WNW) 653 3.7 -19.2°
Drops below altitude 10° 17:05:31 10° 195° (SSW) 2,039 6.3 -20.3°
Sets 17:07:44 0° 194° (SSW) 2,957 7.2 -20.9°
